SILO ALERT LOG
| Silo ID | Alert Type | Alert Message | Silo Type | Points | Depth (mm) | Strength | Temperature (°C) | Humidity (%) | Height (mm) | Volume (㎥) | Weight (t) | Flag | Time |
|---|---|---|---|---|---|---|---|---|---|---|---|---|---|
| WJWJR05 | Humidity | 습도센서 측정값이 80% 초과 | 평 | 61 | 13550 | 2587 | 27.2 | 82.5 | -5830 | -659.357 | 0 | 0 | 2026-07-21 17:25:53.000 |
| WJWJR01 | Humidity | 습도센서 측정값이 80% 초과 | 평 | 84 | 7670 | 987 | 25.8 | 95.5 | -30 | -3.393 | 0 | 0 | 2026-07-21 16:26:00.000 |
| WJWJR05 | Humidity | 습도센서 측정값이 80% 초과 | 평 | 42 | 2530 | 3291 | 27.3 | 82.6 | 5189 | 586.975 | 371.086 | 0 | 2026-07-21 16:25:55.000 |
| WJWJR01 | Humidity | 습도센서 측정값이 80% 초과 | 평 | 85 | 7690 | 1012 | 26 | 95.6 | -50 | -5.655 | 0 | 0 | 2026-07-21 15:26:02.000 |
| WJWJR05 | Humidity | 습도센서 측정값이 80% 초과 | 평 | 0 | 0 | 2912 | 27.3 | 83 | 7720 | 873.111 | 551.981 | 23 | 2026-07-21 15:25:42.000 |
| WJWJR01 | Humidity | 습도센서 측정값이 80% 초과 | 평 | 77 | 7690 | 1031 | 26.3 | 95.2 | -50 | -5.655 | 0 | 0 | 2026-07-21 14:26:01.000 |
| WJWJR05 | Humidity | 습도센서 측정값이 80% 초과 | 평 | 0 | 0 | 3297 | 27.4 | 84 | 7720 | 873.111 | 551.981 | 23 | 2026-07-21 14:25:38.000 |
| WJWJR01 | Humidity | 습도센서 측정값이 80% 초과 | 평 | 83 | 7690 | 1011 | 26.5 | 95.5 | -50 | -5.655 | 0 | 0 | 2026-07-21 13:25:58.000 |
| WJWJR05 | Humidity | 습도센서 측정값이 80% 초과 | 평 | 42 | 1930 | 2923 | 27.2 | 86.6 | 5790 | 654.834 | 413.986 | 0 | 2026-07-21 13:25:43.000 |
| WJWJR01 | Humidity | 습도센서 측정값이 80% 초과 | 평 | 76 | 7670 | 1003 | 26.4 | 95.4 | -30 | -3.393 | 0 | 0 | 2026-07-21 12:26:03.000 |
| WJWJR05 | Humidity | 습도센서 측정값이 80% 초과 | 평 | 55 | 7670 | 2611 | 27.1 | 88.3 | 49 | 5.655 | 3.575 | 0 | 2026-07-21 12:25:45.000 |
| WJWJR01 | Humidity | 습도센서 측정값이 80% 초과 | 평 | 85 | 7640 | 1043 | 26.6 | 95.3 | 0 | 0 | 0 | 0 | 2026-07-21 11:26:06.000 |
| WJWJR05 | Humidity | 습도센서 측정값이 80% 초과 | 평 | 53 | 7670 | 2692 | 27.2 | 87.8 | 49 | 5.655 | 3.575 | 0 | 2026-07-21 11:25:51.000 |
| WJWJR01 | Humidity | 습도센서 측정값이 80% 초과 | 평 | 76 | 7690 | 1045 | 26.3 | 94.9 | -50 | -5.655 | 0 | 0 | 2026-07-21 10:26:00.000 |
| WJWJR05 | Humidity | 습도센서 측정값이 80% 초과 | 평 | 56 | 7760 | 2607 | 26.7 | 86.1 | -40 | -4.524 | 0 | 0 | 2026-07-21 10:25:47.000 |
| WJWJR01 | Humidity | 습도센서 측정값이 80% 초과 | 평 | 74 | 7660 | 1088 | 24.8 | 93.9 | -20 | -2.262 | 0 | 0 | 2026-07-21 09:26:03.000 |
| WJWJR05 | Humidity | 습도센서 측정값이 80% 초과 | 평 | 53 | 7670 | 2644 | 25.8 | 82.4 | 49 | 5.655 | 3.575 | 0 | 2026-07-21 09:25:42.000 |
| WJWJR01 | Humidity | 습도센서 측정값이 80% 초과 | 평 | 77 | 7680 | 1085 | 23.7 | 92.4 | -40 | -4.524 | 0 | 0 | 2026-07-21 08:25:57.000 |
| WJWJR01 | Humidity | 습도센서 측정값이 80% 초과 | 평 | 77 | 7690 | 1116 | 23.5 | 91.1 | -50 | -5.655 | 0 | 0 | 2026-07-21 07:25:57.000 |
| WJWJR01 | Humidity | 습도센서 측정값이 80% 초과 | 평 | 77 | 7680 | 1110 | 23.4 | 91.1 | -40 | -4.524 | 0 | 0 | 2026-07-21 06:26:00.000 |
[첫 페이지] [24] [25] [26] [27] 28 [29] [30] [31] [32] [마지막 페이지]